Date String (YYYY-MM-DD hh:mm:ss) UTC,Instrument flags,Ambient pressure (hPa),Sample flow (lpm),Bypass flow (lpm),Sample temperature (°C),Ambient temperature (°C),ASC tube jacket temperature (°C),LED temperature (°C),Box temperature (°C),Sample RH (%),Span deviation,Mass concentration (μg/m³),Mass concentration (μg/m³),Mass concentration (μg/m³)
DateTimeUTC,F1_M11,P_M11,Q1_M11,Q2_M11,T1_M11,T2_M11,T3_M11,T4_M11,T5_M11,U1_M11,ZSPAN_M11,X0_M11,X2_M11,X1_M11
2022-01-02 13:00:00,,0825.6,5.00,0.00,22.5,21.9,00.0,31.7,24.1,04.4,0000.0,0002.86,0000.04,0000.00
2022-01-02 13:01:00,,0825.6,5.00,0.00,22.6,22.6,00.0,31.7,24.3,04.4,0000.0,0002.81,0000.04,0000.00
2022-01-02 13:02:00,,0825.6,4.99,0.00,22.7,23.3,00.0,31.7,24.6,04.5,0000.0,0002.81,0000.04,0000.00
2022-01-02 13:03:00,,0825.7,5.00,0.00,22.9,23.7,00.0,31.8,24.8,04.7,0000.0,0002.80,0000.04,0000.00
2022-01-02 13:04:00,,0825.7,5.00,0.00,22.9,23.4,00.0,31.8,24.8,04.7,0000.0,0002.80,0000.04,0000.00
2022-01-02 13:05:00,,0825.6,5.01,0.00,22.9,23.2,00.0,31.8,24.7,04.8,0000.0,0002.18,0000.04,0000.00
2022-01-02 13:06:00,,0825.6,5.00,0.00,22.9,22.9,00.0,31.8,24.6,04.8,0000.0,0001.21,0000.03,0000.00
2022-01-02 13:07:00,,0825.6,4.99,0.00,22.8,22.7,00.0,31.8,24.4,04.7,0000.0,0001.21,0000.03,0000.00
2022-01-02 13:08:00,,0825.6,5.00,0.00,22.8,22.4,00.0,31.8,24.3,04.6,0000.0,0001.28,0000.07,0000.00
2022-01-02 13:09:00,,0825.6,5.01,0.00,22.7,22.2,00.0,31.7,24.2,04.6,0000.0,0001.29,0000.07,0000.01
2022-01-02 13:10:00,,0825.6,5.00,0.00,22.6,22.0,00.0,31.7,24.1,04.7,0000.0,0002.57,0000.10,0000.01
2022-01-02 13:11:00,,0825.6,5.00,0.00,22.6,21.9,00.0,31.7,24.1,04.9,0000.0,0002.21,0000.09,0000.01
2022-01-02 13:12:00,,0825.6,5.00,0.00,22.5,21.8,00.0,31.7,24.0,04.9,0000.0,0002.14,0000.10,0000.01
2022-01-02 13:13:00,,0825.6,4.99,0.00,22.5,21.8,00.0,31.7,24.0,04.8,0000.0,0002.14,0000.11,0000.01
2022-01-02 13:14:00,,0825.6,5.00,0.00,22.5,22.4,00.0,31.7,24.2,04.8,0000.0,0002.14,0000.11,0000.01
2022-01-02 13:15:00,,0825.7,5.00,0.00,22.7,23.2,00.0,31.7,24.5,04.9,0000.0,0002.20,0000.13,0000.01
2022-01-02 13:16:00,,0825.6,5.01,0.00,22.8,23.5,00.0,31.7,24.6,04.9,0000.0,0002.22,0000.13,0000.01
2022-01-02 13:17:00,,0825.7,5.00,0.00,22.8,23.2,00.0,31.7,24.6,04.9,0000.0,0002.22,0000.13,0000.01
2022-01-02 13:18:00,,0825.7,4.99,0.00,22.8,23.0,00.0,31.7,24.5,04.9,0000.0,0003.51,0000.14,0000.01
2022-01-02 13:19:00,,0825.7,5.00,0.00,22.8,22.7,00.0,31.7,24.4,04.9,0000.0,0003.83,0000.12,0000.01
2022-01-02 13:20:00,,0825.8,5.01,0.00,22.7,22.5,00.0,31.7,24.3,05.0,0000.0,0003.81,0000.11,0000.01
2022-01-02 13:21:00,,0825.7,5.00,0.00,22.7,22.3,00.0,31.7,24.3,05.3,0000.0,0002.52,0000.10,0000.01
2022-01-02 13:22:00,,0826.0,4.99,0.00,22.6,22.1,00.0,31.7,24.2,05.5,0000.0,0002.37,0000.20,0000.02
2022-01-02 13:23:00,,0825.9,5.01,0.00,22.6,22.0,00.0,31.7,24.2,05.6,0000.0,0002.51,0000.24,0000.03
2022-01-02 13:24:00,,0825.9,5.00,0.00,22.6,22.0,00.0,31.7,24.1,05.8,0000.0,0002.76,0000.35,0000.04
2022-01-02 13:25:00,,0826.1,5.01,0.00,22.5,21.9,00.0,31.6,24.1,05.8,0000.0,0002.80,0000.36,0000.05
2022-01-02 13:26:00,,0825.9,4.99,0.00,22.5,22.0,00.0,31.6,24.1,05.5,0000.0,0002.74,0000.34,0000.04
2022-01-02 13:27:00,,0825.9,5.01,0.00,22.6,22.7,00.0,31.6,24.3,05.6,0000.0,0002.72,0000.34,0000.05
2022-01-02 13:28:00,,0825.9,4.99,0.00,22.7,23.4,00.0,31.7,24.6,05.5,0000.0,0003.08,0000.35,0000.05
2022-01-02 13:29:00,,0825.9,5.01,0.00,22.9,23.6,00.0,31.7,24.8,05.1,0000.0,0003.28,0000.34,0000.05
2022-01-02 13:30:00,,0825.9,5.01,0.00,22.9,23.3,00.0,31.7,24.7,05.0,0000.0,0002.72,0000.33,0000.05
2022-01-02 13:31:00,,0825.9,5.00,0.00,22.9,23.1,00.0,31.7,24.6,04.9,0000.0,0002.76,0000.35,0000.06
2022-01-02 13:32:00,,0825.8,5.00,0.00,22.8,22.8,00.0,31.7,24.6,05.0,0000.0,0002.74,0000.35,0000.06
2022-01-02 13:33:00,,0825.8,4.99,0.00,22.8,22.6,00.0,31.7,24.5,04.9,0000.0,0002.72,0000.25,0000.04
2022-01-02 13:34:00,,0825.9,5.01,0.00,22.8,22.4,00.0,31.7,24.4,04.8,0000.0,0003.74,0000.18,0000.03
2022-01-02 13:35:00,,0825.9,4.99,0.00,22.7,22.3,00.0,31.7,24.3,04.9,0000.0,0003.51,0000.09,0000.02
2022-01-02 13:36:00,,0825.9,5.01,0.00,22.7,22.1,00.0,31.7,24.2,04.9,0000.0,0003.46,0000.07,0000.02
2022-01-02 13:37:00,,0825.9,4.99,0.00,22.6,21.9,00.0,31.7,24.2,04.9,0000.0,0003.47,0000.08,0000.02
2022-01-02 13:38:00,,0825.9,5.02,0.00,22.6,21.8,00.0,31.7,24.1,05.1,0000.0,0003.49,0000.09,0000.02
2022-01-02 13:39:00,,0826.1,4.98,0.00,22.5,21.8,00.0,31.6,24.1,05.1,0000.0,0002.95,0000.08,0000.01
2022-01-02 13:40:00,,0825.8,5.02,0.00,22.5,22.0,00.0,31.6,24.1,05.1,0000.0,0001.81,0000.08,0000.01
2022-01-02 13:41:00,,0825.9,4.98,0.00,22.6,22.8,00.0,31.7,24.4,05.1,0000.0,0001.79,0000.07,0000.01
2022-01-02 13:42:00,,0825.9,5.00,0.00,22.8,23.5,00.0,31.7,24.6,05.2,0000.0,0001.77,0000.05,0000.01
2022-01-02 13:43:00,,0825.9,5.01,0.00,22.8,23.5,00.0,31.7,24.7,05.3,0000.0,0001.77,0000.04,0000.01
2022-01-02 13:44:00,,0826.0,4.99,0.00,22.9,23.2,00.0,31.7,24.7,05.6,0000.0,0001.50,0000.06,0000.01
2022-01-02 13:45:00,,0826.0,5.00,0.00,22.8,22.9,00.0,31.7,24.6,05.8,0000.0,0000.47,0000.06,0000.01
2022-01-02 13:46:00,,0826.0,5.00,0.00,22.8,22.7,00.0,31.7,24.5,05.9,0000.0,0000.47,0000.06,0000.01
2022-01-02 13:47:00,,0826.0,5.01,0.00,22.8,22.5,00.0,31.7,24.4,06.0,0000.0,0000.46,0000.05,0000.01
2022-01-02 13:48:00,,0826.0,4.99,0.00,22.7,22.4,00.0,31.7,24.3,05.7,0000.0,0000.48,0000.06,0000.01
2022-01-02 13:49:00,,0826.1,5.01,0.00,22.7,22.2,00.0,31.7,24.3,05.6,0000.0,0000.46,0000.05,0000.01
2022-01-02 13:50:00,,0826.1,5.00,0.00,22.7,22.1,00.0,31.7,24.3,05.5,0000.0,0000.46,0000.05,0000.01
2022-01-02 13:51:00,,0826.2,4.99,0.00,22.6,22.1,00.0,31.7,24.2,05.5,0000.0,0000.46,0000.05,0000.01
2022-01-02 13:52:00,,0826.2,4.99,0.00,22.6,22.0,00.0,31.7,24.2,05.5,0000.0,0000.46,0000.05,0000.01
2022-01-02 13:53:00,,0826.1,5.00,0.00,22.6,21.9,00.0,31.6,24.2,05.8,0000.0,0000.42,0000.04,0000.01
2022-01-02 13:54:00,,0826.2,5.00,0.00,22.6,22.2,00.0,31.6,24.2,05.4,0000.0,0000.38,0000.04,0000.01
2022-01-02 13:55:00,,0826.2,5.01,0.00,22.7,22.9,00.0,31.7,24.5,05.4,0000.0,0000.16,0000.04,0000.01
2022-01-02 13:56:00,,0826.2,4.99,0.00,22.8,23.6,00.0,31.7,24.7,05.2,0000.0,0000.21,0000.05,0000.01
2022-01-02 13:57:00,,0826.2,5.01,0.00,22.9,23.5,00.0,31.7,24.8,05.2,0000.0,0000.29,0000.05,0000.01
2022-01-02 13:58:00,,0826.2,5.00,0.00,22.9,23.2,00.0,31.7,24.8,05.3,0000.0,0000.29,0000.05,0000.01
2022-01-02 13:59:00,,0826.2,5.00,0.00,22.9,22.9,00.0,31.8,24.7,05.4,0000.0,0000.25,0000.04,0000.00
